This is the latest recevied weather packets stored in our database for station/object DJ9MA-10. If no packets are shown the sender has not sent any weather packets the latest 10 day(s).
| Time | Temp. | Humidity | Pressure | Rain* | Wind** | Luminosity | Snow |
|---|---|---|---|---|---|---|---|
| 1777309116 | 21.11° C | 35% | 965.8 hPa | - | - | - | - |
| 1777308216 | 21.67° C | 35% | 965.8 hPa | - | - | - | - |
| 1777307315 | 22.22° C | 36% | 965.8 hPa | - | - | - | - |
| 1777306415 | 22.78° C | 35% | 966 hPa | - | - | - | - |
| 1777305515 | 22.78° C | 35% | 966 hPa | - | - | - | - |
| 1777304615 | 22.78° C | 35% | 966 hPa | - | - | - | - |
| 1777303715 | 23.33° C | 36% | 966.1 hPa | - | - | - | - |
| 1777302815 | 23.33° C | 36% | 966.2 hPa | - | - | - | - |
| 1777301915 | 23.33° C | 36% | 966.2 hPa | - | - | - | - |
| 1777301015 | 22.22° C | 37% | 966.5 hPa | - | - | - | - |
| 1777300115 | 22.78° C | 38% | 966.5 hPa | - | - | - | - |
| 1777299215 | 22.78° C | 38% | 966.6 hPa | - | - | - | - |
| 1777298315 | 22.22° C | 38% | 966.8 hPa | - | - | - | - |
| 1777297415 | 22.22° C | 40% | 966.8 hPa | - | - | - | - |
| 1777296515 | 21.67° C | 38% | 967 hPa | - | - | - | - |
| 1777295615 | 21.67° C | 37% | 967.2 hPa | - | - | - | - |
| 1777294715 | 21.67° C | 40% | 967.4 hPa | - | - | - | - |
| 1777293814 | 21.11° C | 38% | 967.5 hPa | - | - | - | - |
| 1777292915 | 21.67° C | 38% | 967.6 hPa | - | - | - | - |
| 1777292014 | 21.67° C | 40% | 967.8 hPa | - | - | - | - |
| 1777291114 | 22.78° C | 41% | 967.8 hPa | - | - | - | - |
| 1777290214 | 22.78° C | 45% | 968 hPa | - | - | - | - |
| 1777289314 | 21.11° C | 43% | 968.1 hPa | - | - | - | - |
| 1777288414 | 22.78° C | 41% | 968.3 hPa | - | - | - | - |
| 1777287514 | 21.11° C | 42% | 968.3 hPa | - | - | - | - |
* Rain since midnight (hover to see other rain measurements)
** Current wind speed in m/s (hover to see current wind gust speed)